STARLINK-35309

Last updated on Sun Dec 07 2025 00:02:05 GMT+0000 (Coordinated Universal Time)

1 66323U 25253E 25340.42938995 .00120962 00000+0 20328-2 0 9996 2 66323 42.9992 21.6062 0002349 287.2003 72.8600 15.50621482 5950
UTC large
Height (km)
Speed (km/s)
/
Latitude / Longitude
Inclination (degrees)
Orbital Period (minutes)
Azimuth
Elevation
Range (km)
Doppler Factor

Next 0 passes for location: London (51.5072 / 0.1276)

Sorry there are no passes over London.